Location: New Town
(33.2710°N, 90.7534°W)
Time: 13:43:11
(UTC+00:00)

Explorer 11/Cluster Stage 4 - Pass Details

Date: 20 May 2021
Orbit: 467 x 1257 km, 28.8° (Epoch: 14 June)

Event Time Altitude Azimuth Distance (km) Brightness Sun altitude
Rises 22:38:31 0° 235° (SW) 3,321 10.5 27.5°
Reaches altitude 10° 22:40:58 10° 227° (SW) 2,511 9.8 27.0°
Maximum altitude 22:46:40 40° 160° (SSE) 1,443 8.0 25.8°
Drops below altitude 10° 22:53:31 10° 94° (E) 3,024 9.1 24.4°
Sets 22:56:44 0° 87° (E) 4,074 9.7 23.7°
